Content
SEND FEEDBACK

Daily
Averages
Monthly
Summary
Malaysia

KOTA KINABALU, MALAYSIA


Home > Asia > Malaysia
Elevation: 10 feet     Latitude: 05 55N     Longitude: 116 03E

WEATHER
 
SELECT A DAY
Number of Records: 277,895;   Date Range: 8/9/96 - 10/22/14
 
SHARE

PRINT THIS DATA

[ ← Previous Day ]
WEATHER ALMANAC - SEPTEMBER 21, 2013
[ Next Day → ]
[ °C ]   °F
Weather ElementAverageHighLow
Temperature82.9 °F89.6 °F (1:00 pm)77 °F (5:00 am)
Dewpoint75.5 °F78.8 °F (11:30 am)71.6 °F (11:30 pm)
Humidity78.2 %94 % (10:30 am)62 % (5:00 pm)
Barometer29.76 in29.83 in (9:30 am)29.71 in (3:00 pm)
Wind Speed5.7 mph12.7 mph (10:30 am)
Weather ElementAverage
Visibility6.3 mi
Wind DirectionSSE (173.1 °)

Weather ElementTotal
Precipitation---
Cooling Degree Days18.3 (Base 65)
Growing Degree Days33.3 (Base 50)
Averaged from 52 records on September 21, 2013
WEATHER CONDITIONS BREAKOUT
WIND DIRECTION BREAKOUT
WEATHER BY HOUR - SEPTEMBER 21, 2013
[ °C ]   °F
Local TimeTemperatureDewpointHumidityBarometerVisibilityWind DirectionWind SpeedGust SpeedPrecipitationEventsConditions
12:30 AM80.6 °F75.2 °F84 %29.80 in6.2 miESE (110°)4.6 mphMostly Cloudy
1:00 AM78.8 °F75.2 °F89 %29.77 in6.2 miESE (110°)5.8 mphMostly Cloudy
1:30 AM78.8 °F75.2 °F89 %29.77 in6.2 miESE (110°)5.8 mphMostly Cloudy
2:00 AM79.0 °F74.0 °F82 %29.77 in9.0 miESE (110°)5.8 mphHaze
2:00 AM78.8 °F75.2 °F89 %29.77 in6.2 miESE (110°)5.8 mphMostly Cloudy
2:30 AM78.8 °F75.2 °F89 %29.74 in6.2 miESE (110°)4.6 mphMostly Cloudy
3:00 AM78.8 °F73.4 °F83 %29.74 in6.2 miESE (110°)6.9 mphMostly Cloudy
3:30 AM78.8 °F73.4 °F83 %29.74 in6.2 miESE (110°)5.8 mphMostly Cloudy
4:00 AM78.8 °F73.4 °F83 %29.74 in6.2 miEast (100°)5.8 mphMostly Cloudy
4:30 AM78.8 °F73.4 °F83 %29.74 in6.2 miESE (110°)5.8 mphMostly Cloudy
5:00 AM78.0 °F73.0 °F81 %29.76 in9.0 miESE (110°)5.8 mphHaze
5:00 AM77.0 °F73.4 °F89 %29.74 in6.2 miESE (110°)5.8 mphMostly Cloudy
5:30 AM77.0 °F73.4 °F89 %29.74 in6.2 miESE (110°)4.6 mphMostly Cloudy
6:00 AM77.0 °F73.4 °F89 %29.74 in6.2 miESE (110°)4.6 mphMostly Cloudy
6:30 AM77.0 °F73.4 °F89 %29.77 in6.2 miESE (110°)3.5 mphMostly Cloudy
7:00 AM78.8 °F73.4 °F83 %29.77 in6.2 miESE (110°)4.6 mphMostly Cloudy
7:30 AM80.6 °F73.4 °F79 %29.80 in6.2 miESE (120°)4.6 mphMostly Cloudy
8:00 AM80.6 °F73.4 °F79 %29.80 in6.2 miESE (120°)3.5 mphMostly Cloudy
8:30 AM82.4 °F73.4 °F74 %29.80 in6.2 miESE (120°)3.5 mphMostly Cloudy
9:00 AM84.2 °F75.2 °F74 %29.80 in6.2 miSouth (170°)3.5 mphMostly Cloudy
9:30 AM87.8 °F77.0 °F70 %29.83 in6.2 miSSW (210°)8.1 mphOvercast
10:00 AM87.8 °F77.0 °F70 %29.80 in6.2 miSW (220°)8.1 mphMostly Cloudy
10:30 AM78.8 °F77.0 °F94 %29.83 in0.6 miWSW (240°)12.7 mphRainHeavy Rain
11:00 AM80.6 °F77.0 °F89 %29.80 in3.1 miSSW (210°)3.5 mphRainRain
11:30 AM84.2 °F78.8 °F84 %29.80 in6.2 miSW (220°)4.6 mphMostly Cloudy
12:00 PM86.0 °F78.8 °F79 %29.77 in6.2 miSW (220°)8.1 mphMostly Cloudy
12:30 PM87.8 °F78.8 °F75 %29.77 in6.2 miSW (230°)5.8 mphMostly Cloudy
1:00 PM89.6 °F78.8 °F70 %29.74 in6.2 miSW (230°)5.8 mphMostly Cloudy
1:30 PM89.6 °F77.0 °F66 %29.74 in6.2 miSW (230°)6.9 mphMostly Cloudy
2:00 PM89.6 °F77.0 °F66 %29.74 in6.2 miWSW (240°)8.1 mphMostly Cloudy
2:30 PM89.6 °F77.0 °F66 %29.74 in6.2 miWSW (240°)6.9 mphMostly Cloudy
3:00 PM89.6 °F77.0 °F66 %29.71 in6.2 miSW (230°)8.1 mphMostly Cloudy
3:30 PM89.6 °F77.0 °F66 %29.71 in6.2 miSW (230°)10.4 mphMostly Cloudy
4:00 PM89.6 °F77.0 °F66 %29.71 in6.2 miWSW (240°)6.9 mphMostly Cloudy
4:30 PM89.6 °F77.0 °F66 %29.71 in6.2 miWSW (240°)8.1 mphMostly Cloudy
5:00 PM88.0 °F77.0 °F62 %29.73 in10.0 miWSW (240°)6.9 mphHaze
5:00 PM87.8 °F77.0 °F70 %29.71 in6.2 miWSW (240°)6.9 mphMostly Cloudy
5:30 PM87.8 °F77.0 °F70 %29.71 in6.2 miSW (230°)6.9 mphMostly Cloudy
6:00 PM86.0 °F77.0 °F74 %29.74 in6.2 miWSW (240°)5.8 mphMostly Cloudy
6:30 PM86.0 °F77.0 °F74 %29.74 in6.2 miWSW (240°)4.6 mphMostly Cloudy
7:00 PM86.0 °F77.0 °F74 %29.74 in6.2 miWSW (240°)4.6 mphMostly Cloudy
7:30 PM86.0 °F77.0 °F74 %29.74 in6.2 miWest (260°)4.6 mphMostly Cloudy
8:00 PM85.0 °F78.0 °F73 %29.77 in9.0 miWest (270°)3.5 mphHaze
8:00 PM84.2 °F77.0 °F79 %29.77 in6.2 miWest (270°)3.5 mphMostly Cloudy
8:30 PM84.2 °F77.0 °F79 %29.77 in6.2 miWest (260°)3.5 mphMostly Cloudy
9:00 PM82.4 °F75.2 °F79 %29.77 in6.2 miSE (140°)2.3 mphMostly Cloudy
9:30 PM80.6 °F75.2 °F84 %29.80 in6.2 miESE (110°)4.6 mphMostly Cloudy
10:00 PM80.6 °F73.4 °F79 %29.80 in6.2 miESE (110°)4.6 mphMostly Cloudy
10:30 PM78.8 °F73.4 °F83 %29.80 in6.2 miESE (110°)5.8 mphMostly Cloudy
11:00 PM79.0 °F73.0 °F76 %29.81 in10.0 miESE (110°)5.8 mphHaze
11:00 PM78.8 °F73.4 °F83 %29.80 in6.2 miESE (110°)5.8 mphMostly Cloudy
11:30 PM78.8 °F71.6 °F78 %29.80 in6.2 miESE (110°)5.8 mphMostly Cloudy
Hourly data recorded from WBKK, located miles away from Kota Kinabalu, Malaysia







STORIES FROM OUR PARTNERS